Previsão horária em Abancay

Hoje, 17 Abril, Sábado

Tempo Temperatura Precipitação Vento Pressão Humidade
00:00 +11°C° 0 mm 0 m/s 543 mmHg 89%
01:00 +10°C° 0 mm 0 m/s 543 mmHg 89%
02:00 +10°C° 0 mm 0 m/s 543 mmHg 88%
03:00 +10°C° 0 mm 0 m/s 542 mmHg 87%
04:00 +10°C° 0 mm 0 m/s 542 mmHg 85%
05:00 +11°C° 0 mm 0 m/s 543 mmHg 83%
06:00 +12°C° 0 mm 1 m/s 544 mmHg 81%
07:00 +13°C° 0 mm 1 m/s 544 mmHg 79%
08:00 +15°C° 0 mm 1 m/s 545 mmHg 74%
09:00 +16°C° 0 mm 1 m/s 545 mmHg 68%
10:00 +19°C° 0 mm 1 m/s 546 mmHg 63%
11:00 +19°C° 0.1 mm 2 m/s 546 mmHg 60%
12:00 +20°C° 0.1 mm 2 m/s 546 mmHg 56%
13:00 +21°C° 0.1 mm 3 m/s 545 mmHg 53%
14:00 +21°C° 0.1 mm 3 m/s 545 mmHg 54%
15:00 +21°C° 0.1 mm 3 m/s 544 mmHg 54%
16:00 +21°C° 0.1 mm 3 m/s 543 mmHg 55%
17:00 +18°C° 0.3 mm 2 m/s 543 mmHg 65%
18:00 +16°C° 0.3 mm 2 m/s 542 mmHg 75%
19:00 +13°C° 0.3 mm 1 m/s 542 mmHg 85%
20:00 +13°C° 0.4 mm 1 m/s 542 mmHg 87%
21:00 +12°C° 0.4 mm 1 m/s 543 mmHg 89%
22:00 +12°C° 0.4 mm 1 m/s 543 mmHg 92%
23:00 +12°C° 0.2 mm 1 m/s 543 mmHg 91%

Amanhã, 18 Abril, Domingo

Tempo Temperatura Precipitação Vento Pressão Humidade
00:00 +12°C° 0.2 mm 1 m/s 543 mmHg 91%
01:00 +11°C° 0.2 mm 0 m/s 543 mmHg 91%
02:00 +11°C° 0 mm 0 m/s 543 mmHg 91%
03:00 +11°C° 0 mm 0 m/s 543 mmHg 90%
04:00 +11°C° 0 mm 0 m/s 543 mmHg 89%
05:00 +11°C° 0 mm 0 m/s 543 mmHg 88%
06:00 +12°C° 0 mm 0 m/s 544 mmHg 86%
07:00 +12°C° 0 mm 0 m/s 544 mmHg 85%
08:00 +13°C° 0 mm 0 m/s 545 mmHg 79%
09:00 +15°C° 0 mm 1 m/s 545 mmHg 74%
10:00 +16°C° 0 mm 1 m/s 546 mmHg 68%
11:00 +18°C° 0 mm 1 m/s 546 mmHg 64%
12:00 +20°C° 0 mm 1 m/s 545 mmHg 60%
13:00 +20°C° 0 mm 2 m/s 545 mmHg 55%
14:00 +20°C° 0 mm 2 m/s 545 mmHg 55%
15:00 +20°C° 0 mm 2 m/s 544 mmHg 54%
16:00 +20°C° 0 mm 2 m/s 543 mmHg 54%
17:00 +18°C° 0.1 mm 2 m/s 543 mmHg 63%
18:00 +16°C° 0.1 mm 2 m/s 543 mmHg 72%
19:00 +14°C° 0.1 mm 1 m/s 542 mmHg 81%
20:00 +13°C° 0.3 mm 1 m/s 543 mmHg 84%
21:00 +13°C° 0.3 mm 1 m/s 543 mmHg 87%
22:00 +12°C° 0.3 mm 1 m/s 543 mmHg 90%
23:00 +12°C° 0.3 mm 1 m/s 543 mmHg 91%

Depois de amanhã, 19 Abril, Segunda-feira

Tempo Temperatura Precipitação Vento Pressão Humidade
00:00 +12°C° 0.3 mm 1 m/s 543 mmHg 91%
01:00 +11°C° 0.3 mm 1 m/s 543 mmHg 91%
02:00 +12°C° 0.1 mm 1 m/s 543 mmHg 91%
03:00 +11°C° 0.1 mm 0 m/s 543 mmHg 90%
04:00 +11°C° 0.1 mm 0 m/s 543 mmHg 89%
05:00 +11°C° 0 mm 0 m/s 543 mmHg 87%
06:00 +11°C° 0 mm 0 m/s 544 mmHg 86%
07:00 +12°C° 0 mm 0 m/s 544 mmHg 84%
08:00 +13°C° 0 mm 0 m/s 545 mmHg 80%
09:00 +15°C° 0 mm 1 m/s 546 mmHg 75%
10:00 +16°C° 0 mm 1 m/s 546 mmHg 71%
11:00 +18°C° 0.1 mm 1 m/s 546 mmHg 66%
12:00 +19°C° 0.1 mm 2 m/s 546 mmHg 60%
13:00 +20°C° 0.1 mm 2 m/s 545 mmHg 55%
14:00 +20°C° 0.1 mm 2 m/s 545 mmHg 54%
15:00 +20°C° 0.1 mm 2 m/s 544 mmHg 54%
16:00 +20°C° 0.1 mm 2 m/s 543 mmHg 54%
17:00 +18°C° 0.7 mm 2 m/s 543 mmHg 64%
18:00 +16°C° 0.7 mm 2 m/s 543 mmHg 74%
19:00 +14°C° 0.7 mm 2 m/s 543 mmHg 84%
20:00 +13°C° 0.3 mm 2 m/s 543 mmHg 85%
21:00 +13°C° 0.3 mm 1 m/s 543 mmHg 87%
22:00 +12°C° 0.3 mm 1 m/s 543 mmHg 88%
23:00 +12°C° 0.1 mm 1 m/s 543 mmHg 88%

20 Abril, Terça-feira

Tempo Temperatura Precipitação Vento Pressão Humidade
00:00 +10°C° 0.1 mm 0 m/s 542 mmHg 89%
01:00 +10°C° 0.1 mm 0 m/s 542 mmHg 89%
02:00 +10°C° 0 mm 0 m/s 542 mmHg 88%
03:00 +10°C° 0 mm 0 m/s 542 mmHg 88%
04:00 +10°C° 0 mm 0 m/s 542 mmHg 87%
05:00 +10°C° 0 mm 0 m/s 543 mmHg 86%
06:00 +11°C° 0 mm 0 m/s 543 mmHg 84%
07:00 +11°C° 0 mm 0 m/s 544 mmHg 82%
08:00 +14°C° 0 mm 1 m/s 545 mmHg 77%
09:00 +15°C° 0 mm 1 m/s 545 mmHg 71%
10:00 +18°C° 0 mm 1 m/s 546 mmHg 66%
11:00 +18°C° 0.1 mm 2 m/s 546 mmHg 62%
12:00 +19°C° 0.1 mm 2 m/s 545 mmHg 58%
13:00 +20°C° 0.1 mm 2 m/s 545 mmHg 53%
14:00 +20°C° 0.1 mm 2 m/s 545 mmHg 53%
15:00 +20°C° 0.1 mm 2 m/s 544 mmHg 52%
16:00 +20°C° 0.1 mm 2 m/s 543 mmHg 52%
17:00 +18°C° 0.3 mm 2 m/s 543 mmHg 63%
18:00 +15°C° 0.3 mm 2 m/s 543 mmHg 73%
19:00 +13°C° 0.3 mm 2 m/s 542 mmHg 84%
20:00 +13°C° 0.6 mm 1 m/s 542 mmHg 85%
21:00 +13°C° 0.6 mm 1 m/s 543 mmHg 87%
22:00 +12°C° 0.6 mm 1 m/s 543 mmHg 88%
23:00 +12°C° 0.1 mm 1 m/s 543 mmHg 89%

21 Abril, Quarta-feira

Tempo Temperatura Precipitação Vento Pressão Humidade
00:00 +12°C° 0.1 mm 1 m/s 543 mmHg 89%
01:00 +11°C° 0.1 mm 1 m/s 542 mmHg 89%
02:00 +10°C° 0 mm 0 m/s 542 mmHg 90%
03:00 +10°C° 0 mm 0 m/s 542 mmHg 91%
04:00 +10°C° 0 mm 0 m/s 542 mmHg 92%
05:00 +10°C° 0 mm 0 m/s 543 mmHg 89%
06:00 +11°C° 0 mm 0 m/s 543 mmHg 87%
07:00 +11°C° 0 mm 0 m/s 544 mmHg 85%
08:00 +13°C° 0 mm 0 m/s 544 mmHg 79%
09:00 +16°C° 0 mm 1 m/s 545 mmHg 72%
10:00 +19°C° 0 mm 1 m/s 546 mmHg 66%
11:00 +19°C° 0.3 mm 2 m/s 545 mmHg 61%
12:00 +20°C° 0.3 mm 2 m/s 545 mmHg 57%
13:00 +21°C° 0.3 mm 3 m/s 545 mmHg 52%
14:00 +21°C° 0.2 mm 3 m/s 544 mmHg 52%
15:00 +20°C° 0.2 mm 3 m/s 543 mmHg 52%
16:00 +20°C° 0.2 mm 2 m/s 543 mmHg 52%
17:00 +18°C° 0.1 mm 2 m/s 542 mmHg 63%
18:00 +15°C° 0.1 mm 2 m/s 542 mmHg 74%
19:00 +13°C° 0.1 mm 2 m/s 542 mmHg 85%
20:00 +13°C° 0.1 mm 1 m/s 542 mmHg 87%
21:00 +13°C° 0.1 mm 1 m/s 542 mmHg 89%
22:00 +13°C° 0.1 mm 1 m/s 543 mmHg 91%
23:00 +13°C° 0.3 mm 1 m/s 543 mmHg 91%

22 Abril, Quinta-feira

Tempo Temperatura Precipitação Vento Pressão Humidade
00:00 +11°C° 0.3 mm 0 m/s 543 mmHg 90%
01:00 +11°C° 0.3 mm 0 m/s 542 mmHg 90%
02:00 +11°C° 0 mm 0 m/s 542 mmHg 89%
03:00 +11°C° 0 mm 0 m/s 542 mmHg 88%
04:00 +11°C° 0 mm 0 m/s 542 mmHg 87%
05:00 +11°C° 0 mm 0 m/s 543 mmHg 86%
06:00 +11°C° 0 mm 0 m/s 543 mmHg 85%
07:00 +12°C° 0 mm 0 m/s 543 mmHg 84%
08:00 +14°C° 0.1 mm 1 m/s 544 mmHg 79%
09:00 +16°C° 0.1 mm 1 m/s 545 mmHg 73%
10:00 +17°C° 0.1 mm 2 m/s 545 mmHg 67%
11:00 +18°C° 0.3 mm 2 m/s 545 mmHg 63%
12:00 +19°C° 0.3 mm 2 m/s 545 mmHg 59%
13:00 +20°C° 0.3 mm 3 m/s 544 mmHg 55%
14:00 +20°C° 0.3 mm 3 m/s 544 mmHg 56%
15:00 +20°C° 0.3 mm 2 m/s 543 mmHg 56%
16:00 +20°C° 0.3 mm 2 m/s 542 mmHg 57%
17:00 +18°C° 0.8 mm 2 m/s 542 mmHg 67%
18:00 +16°C° 0.8 mm 2 m/s 542 mmHg 77%
19:00 +14°C° 0.8 mm 2 m/s 542 mmHg 87%
20:00 +13°C° 0.2 mm 1 m/s 542 mmHg 88%
21:00 +12°C° 0.2 mm 1 m/s 542 mmHg 88%
22:00 +12°C° 0.2 mm 1 m/s 542 mmHg 89%
23:00 +12°C° 0.1 mm 1 m/s 542 mmHg 89%
Mostrar mais

Necessitamos do seu Consentimento

A Meteoprog e os seus Fornecedores de Serviços podem armazenar e aceder a dados pessoais como cookies, identificadores do dispositivo ou outras tecnologias semelhantes existentes no seu dispositivo e processar estes dados para personalizar conteúdos e anúncios, assim como funcionalidades nas redes sociais e análise de tráfego.

  • Armazenar e/ou aceder a informações no seu dispositivo

    Os cookies, identificadores do dispositivo ou outras informações podem ser armazenados ou acedidos no seu dispositivo, para os fins acima indicados.

  • Anúncios e conteúdos personalizados, medição de anúncios e conteúdos, dados sobre o público-alvo e desenvolvimento de produtos

    Os anúncios e os conteúdos podem ser personalizados com base num perfil. Podem ser adicionados dados adicionais para uma maior personalização dos anúncios e dos conteúdos. A eficácia dos anúncios e dos conteúdos pode ser medida. Podem ser obtidas informações sobre o público que visualizou os anúncios e os conteúdos. Estes dados podem ser usados para desenvolver ou melhorar sistemas, softwares ou a experiência do utilizador.

Ao clicar em "Eu concordo”, permitirá o uso de cookies, identificadores do dispositivo e web beacons mencionados ou outras tecnologias semelhantes. As configurações do navegador do seu dispositivo podem ser alteradas.

Para certos fins, podem ser invocados interesses legítimos ao invés de consentimento. Pode ler mais informação sobre este assunto na nossa Política de Privacidade e Cookies.